Showing default

EDRS-C, 44475

Orbit data source: Space-Track

EDRS-C, 44475 is a payload satellite owned by ESA (ESA) in GEO that was launched on Tue, 06 Aug 2019 UTC via an ARIANE 5ECA+ launch vehicle from the French Guiana (FRGUI). Payload-class satellites include a variety of spacecraft equipped with specific instruments for various scientific and technological missions. These include communications satellites like Starlink; space stations such as the ISS; scientific satellites like the Hubble; Earth observation satellites from companies like Planet Labs, Umbra, and HawkEye 360; GPS; miniature CubeSats for education and research; and military/defense satellites.

Not visible in the next 10 days
Identifier
44475, 2019-049A
Orbit
GEO
Country
Flag of ESAESA
Related business
Manufacturer
OHB
Mission
Operational Civil Communications
Bus & Motor
SMALLGEO, S400
Mass
3,186 kg wet, ~1,700 kg dry
Launch date (UTC)
2019-08-06 (6 years ago)
Launch vehicle
ARIANE 5ECA+
Launch site
French Guiana (FRGUI)
Object type
Payload
Rocket body
Debris
Shape & HBR
Box + 2 Pan, 10.4 m
Radar Cross Section
22.899 m², Small (<0.1 m²)

Expand to show TLE details & history
Last TLE update: 7 hours ago

TLE from 7 hours ago
0 EDRS-C
1 44475U 19049A   25304.78258394 -.00000251  00000-0  00000+0 0  9995
2 44475   0.0476  88.3480 0000703 128.9250 247.3287  1.00270640 22929
Epoch: 2025-10-31T18:46Z
TLE epoch observation values (Epoch: 2025-10-31T18:46:55.252Z)
Latitude
-0.01114°
Longitude
142.50482°
Altitude
35,787.557 km
Speed
3.075 km/s
True Right ascension
06h 58m 13s
True Declination
0° 00' 40"
Sunlit
Object was in daylight at epoch
Visualization orbit readout
Latitude
Unknown
Longitude
Unknown
Altitude
Unknown
Speed
Unknown
Apparent Right ascension
Unknown
Apparent Declination
Unknown
Sunlit
N/A
Visualization observer readout
Local Sidereal Time
21:36:59
Azimuth
Unknown
Elevation
Unknown
Doppler factor
Unknown
Orbital elements
Apogee altitude
35,790.951 km
Perigee altitude
35,785.022 km
Semi-major axis
42,166.123 km
Eccentricity
0.00007
Inclination
0.0476°
RAAN
88.348°
Arg. of periapsis
128.925°
True anomaly
247.32127°
Mean anomaly
247.3287°
Eccentric anomaly
247.32498°
Mean motion
0.25067 °/min
Orbital period
1,436.17 mins
BSTAR
0
Loading maneuver chart data...
Computing Atmospheric mass density...
Loading historical data...
Loading historical data...
Loading historical data...
Loading historical data...
Loading historical data...
Loading historical data...
Loading historical data...
Other satellites on launch #49 in the year 2019 (2019-08-06 UTC)

Documentation

Showing up to 5 results
|